Regional Weather Roundup
Issued by NWS Upton, NY

Home | Current Version | Previous Version | Text Only | Print | Product List | Glossary On
Versions: 1 2 3 4 5 6 7 8 9 10 11 12 13 14 15 16 17 18 19 20 21 22 23 24 25 26 27 28
000
ASUS41 KOKX 271404
RWROKX

REGIONAL WEATHER ROUNDUP
NATIONAL WEATHER SERVICE NEW YORK NY
1000 AM EDT WED JUL 27 2016

NOTE: "FAIR" INDICATES FEW OR NO CLOUDS BELOW 12,000 FEET WITH NO
SIGNIFICANT WEATHER AND/OR OBSTRUCTIONS TO VISIBILITY.

NYZ071-072-176-178-NJZ106-104-271500-
NEW YORK CITY METRO AREA

CITY           SKY/WX    TMP DP  RH WIND       PRES   REMARKS
Central Park   SUNNY     82  61  48 VRB5      29.98S
LaGuardia APRT MOSUNNY   82  60  47 E7        29.95S
Kennedy INTL   MOSUNNY   83  60  45 CALM      29.96S
Newark/Liberty MOSUNNY   84  62  47 NE7       29.95S
Bronx Bot Gard   N/A     82  59  44 E3        29.97F
Wall St Helipt SUNNY     84  61  45 E3        29.96S
Teterboro      SUNNY     83  60  45 E6        29.95S
$$

NYZ177-179-078>081-271500-
LONG ISLAND NEW YORK

CITY           SKY/WX    TMP DP  RH WIND       PRES   REMARKS
Farmingdale    SUNNY     84  63  49 E3        29.95F
MacArthur/ISP  MOSUNNY   84  63  49 CALM      29.94F
Shirley        MOSUNNY   84  65  52 CALM      29.95F
Riverhead      NOT AVBL
Westhampton    MOSUNNY   84  64  50 VRB5      29.96F
Southhampton     N/A     84  66  54 CALM      29.91S
Bridgehampton    N/A     81  68  65 CALM      29.94S
East Hampton   FAIR      81  66  59 CALM      29.94S
Montauk          N/A     79  65  62 NW3       29.96S
$$

NYZ052-065-067-271500-
HUDSON VALLEY

CITY           SKY/WX    TMP DP  RH WIND       PRES   REMARKS
White Plains   SUNNY     82  60  47 CALM      29.96S
Newburgh       SUNNY     77  64  65 VRB5      30.00S
Montgomery     SUNNY     79  65  62 S5        29.97F
Poughkeepsie   SUNNY     79  63  57 CALM      29.96F
Albany         SUNNY     79  60  52 W6        29.96F
$$

NJZ001-105-106-008-010-013-015-019>022-104-271500-
NEW JERSEY

CITY           SKY/WX    TMP DP  RH WIND       PRES   REMARKS
Newark/Liberty MOSUNNY   84  62  47 NE7       29.95S
Teterboro      SUNNY     83  60  45 E6        29.95S
Caldwell       SUNNY     81  64  56 VRB3      29.97S
Morristown     SUNNY     81  63  54 CALM      29.97S
Somerville     SUNNY     82  64  54 CALM      29.95S
Linden         FAIR      84  59  42 CALM      29.97S
Sussex         SUNNY     79  66  64 CALM      29.98F
Abdover          N/A     78  63  59 CALM      29.99F
Trenton        PTSUNNY   82  65  56 E5        29.96F
Millville      SUNNY     84  70  62 SE7       29.95S
Atlantic City  SUNNY     83  67  58 E7        29.94S
Wrightstown    SUNNY     81  66  59 NE6       29.93F
Toms River     SUNNY     83  67  58 VRB5      29.96F
Belmar         PTSUNNY   81  63  54 VRB5      29.97F
$$

PAZ047>061-062-071-271500-
EASTERN PENNSYLVANIA

CITY           SKY/WX    TMP DP  RH WIND       PRES   REMARKS
Philadelphia   MOSUNNY   85  65  51 E7        29.95F
Allentown      SUNNY     82  65  56 CALM      29.98F
Scranton       SUNNY     78  62  57 E3        30.01F
$$

CTZ002-004>006-009-010-012-RIZ004-006-007-MAZ004-011-015-271500-
SOUTHERN NEW ENGLAND
 IN CT

CITY           SKY/WX    TMP DP  RH WIND       PRES   REMARKS
Bradley INTL   MOSUNNY   83  60  45 W3        29.93F
Hartford       SUNNY     85  63  47 CALM      29.94F
Danbury        SUNNY     81  62  52 SW3       29.98S
Wtrbury/Oxford MOSUNNY   81  61  50 NE5       30.00S
Bridgeport     SUNNY     80  63  55 SW6       29.95S
Meriden        SUNNY     84  63  49 CALM      29.94F
New Haven      SUNNY     81  63  54 W5        29.95S
Chester        FAIR      82  64  54 CALM      29.96S
Groton         MOSUNNY   81  67  62 S7        29.93F
Wilimantic     NOT AVBL

 IN RI

CITY           SKY/WX    TMP DP  RH WIND       PRES   REMARKS
Providence     MOSUNNY   84  60  44 N9        29.94S
Block Island   SUNNY     80  62  54 CALM      29.95S
Westerly       SUNNY     84  62  47 S6        29.95S
 IN MA

CITY           SKY/WX    TMP DP  RH WIND       PRES   REMARKS
Boston         MOSUNNY   80  62  54 SE8       29.92F
Worchester     SUNNY     79  58  48 CALM      29.97F
Westfield      SUNNY     83  59  44 CALM      29.94F
Provincetown   SUNNY     76  66  71 NW6       29.93S
Nantucket      SUNNY     80  64  58 N8        29.92S
$$

ANZ330-335-338-340-345-350-353-355-271500-
COASTAL MARINE OBSERVATIONS


STATION/POSITION TIME  SKY/WX   TEMP    WIND        PRES    VSBY  WAVE
                                AIR SEA DIR/SP/G                  HT/PER
                 (UTC)          (F)     (DEG/KT/KT) (MB)    (MI)  (FT/S)
NY HARB ENTRANCE 1250            74 73   10/  4/  6 1014.1          2/ 6
20S FIRE ISLAND  1250            74 74   20/  8/  8 1013.8          2/ 6
GREAT SOUTH BAY  1300            78 80   60/  2/  4   N/A
23 SSW MONTAUK P 1250            71 69  320/  4/  4 1014.5          2/ 6
15 E BARNEGAT LI 1322               77                N/A           2/ 6
HUDSON CANYON    1250            78 78              1013.7          2/ 6
KINGS POINT      1300            74 72              1014.2
EXECUTION ROCKS  1300            83      10/  2/  2   N/A
CENTRAL LI SOUND 1300            74 74  270/  4/  4   N/A           0
EASTERN LI SOUND 1300            77 68  260/  4/  6   N/A
ROBBINS REEF     1300            79     360/  3/  3 1013.7
$$


>>>>>>>>>>>>>>>>>>>>>>>>>>>> KEY <<<<<<<<<<<<<<<<<<<<<<<<<<<
>                                                          <
>     SKY/WX - Sky Condition/Present Weather               <
>     TMP    - Temperature in Fahrenheit                   <
>     DP     - Dew Point in Fahrenheit                     <
>     RH     - Relative Humidity in Percent                <
>     WIND   - Direction (from) and Speed in MPH           <
>     PRES   - Mean Sea Level Pressure (inches of Hg)      <
>     WCI    - Wind Chill Index                            <
>     VSB    - VISIBILITY IN MILES                         <
>     HX     - HEAT INDEX                                  <
>     TC     - TEMPERATURE IN CELSIUS                      <
>     VRB    - VARIABLE WIND DIRECTION                     <
>                                                          <
>>>>>>>>>>>>>>>>>>>>>>>>>>>> KEY <<<<<<<<<<<<<<<<<<<<<<<<<<<




USA.gov is the U.S. government's official web portal to all federal, state and local government web resources and services.